sat.trackr.live / text

‹ back to catalog

STARLINK-32418

NORAD 62429 · 2024-249W

PAYLOAD ACTIVE UNKNOWN

§ Identity

Operator
Country
US
Launch date
2024-12-23
Launch site
AFETR
Launch vehicle
Mass (kg)
RCS (m²)

Purposes: comms

External: N2YO · Heavens-Above · Gunter

§ Orbital elements

Epoch: 2026-05-24T23:48:03.479616Z

Period
94.27 min
Inclination
42.9997°
Eccentricity
0.0002945
Mean motion
15.27587747 rev/d
Perigee alt
481.0 km
Apogee alt
485.0 km
Semi-major
6,861.2 km
B*
4.3268e-4
RAAN
243.1117°
Arg perigee
278.9509°
Mean anomaly
81.1009°
Rev number
7,948

§ Raw data

STARLINK-324181 62429U 24249W   26144.99170694  .00011666  00000+0  43268-3 0  99912 62429  42.9997 243.1117 0002945 278.9509  81.1009 15.27587747 79484

JSON: /api/v1/satellites/62429 · /tle

For live sub-satellite position, see the globe view (requires WebGL).

§ Visibility from observer

Set your observer location to see the next 7 days of passes ≥ 10°. The values pass through the URL so the page stays shareable.

No JS? Fill the form by hand. The geolocation button needs JavaScript.